Regional Weather Roundup
Issued by NWS Little Rock, AR

Home | Current Version | Previous Version | Text Only | Print | Product List | Glossary On
Versions: 1 2 3 4 5 6 7 8 9 10 11 12 13 14 15 16 17 18 19 20 21 22 23 24 25 26 27 28 29 30 31 32 33 34 35 36 37 38 39 40 41 42 43 44 45 46 47 48 49 50
000
ASUS44 KLZK 260605
RWRLZK

WEATHER ROUNDUP FOR ARKANSAS
NATIONAL WEATHER SERVICE LITTLE ROCK AR
100 AM CDT SAT JUL 26 2014

NOTE: "FAIR" INDICATES FEW OR NO CLOUDS BELOW 12,000 FEET WITH NO
SIGNIFICANT WEATHER AND/OR OBSTRUCTIONS TO VISIBILITY.

ARZ001-003-010-029-260700-
NORTHWEST ARKANSAS

CITY           SKY/WX    TMP DP  RH WIND       PRES   REMARKS
FAYETTEVILLE   CLEAR     73  71  93 CALM      29.98S
6HR MIN TEMP:  72; 6HR MAX TEMP:  85;

FORT SMITH     CLEAR     78  72  81 N3        29.94S
6HR MIN TEMP:  77; 6HR MAX TEMP:  91;

HARRISON       CLEAR     74  71  91 S7        29.98R
6HR MIN TEMP:  74; 6HR MAX TEMP:  83;

BENTONVILLE    CLEAR     75  70  83 S6        29.98S
6HR MIN TEMP:  75; 6HR MAX TEMP:  88;

ROGERS         CLEAR     76  70  82 S12       29.98S
6HR MIN TEMP:  76; 6HR MAX TEMP:  88;

SILOAM SPGS    CLEAR     75  66  73 S9        29.98S
6HR MIN TEMP:  73; 6HR MAX TEMP:  88;

HIGHFILL       CLEAR     74  72  93 S3        29.97S
6HR MIN TEMP:  74; 6HR MAX TEMP:  86;

$$

ARZ004-005-016-260700-
NORTH CENTRAL ARKANSAS

CITY           SKY/WX    TMP DP  RH WIND       PRES   REMARKS
BATESVILLE     CLEAR     75  70  83 S7        29.97S
6HR MIN TEMP:  75; 6HR MAX TEMP:  84;

FLIPPIN        CLEAR     75  70  83 SW8       29.96S
6HR MIN TEMP:  75; 6HR MAX TEMP:  84;

MTN HOME       CLEAR     72  70  93 CALM      29.96S
6HR MIN TEMP:  72; 6HR MAX TEMP:  84;

$$

ARZ040-041-260700-
WEST CENTRAL ARKANSAS

CITY           SKY/WX    TMP DP  RH WIND       PRES   REMARKS
MENA           CLEAR     81  73  78 CALM      30.00F HX  85
MOUNT IDA      CLEAR     72  70  93 CALM      29.97S FOG
6HR MIN TEMP:  72; 6HR MAX TEMP:  84;

$$

ARZ009-017-025-026-028-260700-
NORTHEAST ARKANSAS

CITY           SKY/WX    TMP DP  RH WIND       PRES   REMARKS
CORNING        FAIR      72  68  88 S7        29.97S
JONESBORO      CLEAR     72  66  81 SW5       29.97S
6HR MIN TEMP:  69; 6HR MAX TEMP:  81;

NEWPORT        CLEAR     73  71  93 S10       29.98S
6HR MIN TEMP:  72; 6HR MAX TEMP:  83; 6HR PCP: TRACE;

WALNUT RIDGE   CLEAR     72  57  60 S5        29.96S
6HR MIN TEMP:  72; 6HR MAX TEMP:  82;

BLYTHEVILLE    CLEAR     71  66  84 S7        29.98S
6HR MIN TEMP:  71; 6HR MAX TEMP:  81;

$$

ARZ022-023-033-042-044-260700-
CENTRAL ARKANSAS

CITY           SKY/WX    TMP DP  RH WIND       PRES   REMARKS
LITTLE ROCK    CLEAR     75  71  87 CALM      29.98S
6HR MIN TEMP:  75; 6HR MAX TEMP:  86;

N LITTLE ROCK    N/A     76  73  90 S2        29.98S
6HR MIN TEMP:  76; 6HR MAX TEMP:  85;

JACKSONVILLE   CLEAR     73  72  96 CALM      29.98S
6HR MIN TEMP:  73; 6HR MAX TEMP:  85; 6HR PCP: TRACE;

SEARCY         CLEAR     73  71  93 W3        29.99S
6HR MIN TEMP:  73; 6HR MAX TEMP:  84;

HOT SPRINGS    CLEAR     75  72  90 CALM      29.99R
6HR MIN TEMP:  75; 6HR MAX TEMP:  86;

RUSSELLVILLE   CLEAR     74  72  93 CALM      29.97R FOG
6HR MIN TEMP:  74; 6HR MAX TEMP:  87;

CLINTON        FAIR      72  72 100 CALM      29.99S FOG
$$

ARZ036-260700-
EAST ARKANSAS

CITY           SKY/WX    TMP DP  RH WIND       PRES   REMARKS
WEST MEMPHIS   PTCLDY    71  67  87 S3        29.98S
6HR MIN TEMP:  71; 6HR MAX TEMP:  83;

$$

ARZ050-053-066-070-073-260700-
SOUTHWEST ARKANSAS

CITY           SKY/WX    TMP DP  RH WIND       PRES   REMARKS
ARKADELPHIA    FAIR      75  75 100 CALM      29.98R
6HR MIN TEMP:  75; 6HR MAX TEMP:  89;

CAMDEN         CLEAR     73  72  94 CALM      29.98R FOG
TEXARKANA      CLEAR     79  74  84 S6        29.98S
6HR MIN TEMP:  79; 6HR MAX TEMP:  88;

EL DORADO      CLEAR     75  73  93 CALM      29.99S
6HR MIN TEMP:  75; 6HR MAX TEMP:  88;

DE QUEEN       FOG       73  73 100 CALM      29.96S VSB 1/2
6HR MIN TEMP:  73; 6HR MAX TEMP:  85;

$$

ARZ056-057-069-260700-
SOUTHEAST ARKANSAS

CITY           SKY/WX    TMP DP  RH WIND       PRES   REMARKS
PINE BLUFF     CLEAR     73  70  90 CALM      29.99R
6HR MIN TEMP:  72; 6HR MAX TEMP:  86;

STUTTGART      CLEAR     75  70  83 S6        30.00S
6HR MIN TEMP:  75; 6HR MAX TEMP:  86;

MONTICELLO     CLEAR     76  71  85 S5        29.99F
6HR MIN TEMP:  76; 6HR MAX TEMP:  87;


$$





USA.gov is the U.S. government's official web portal to all federal, state and local government web resources and services.